Year,Month,Day,Hour,Minute,Value (Times are PST for temperature in C)
2019,02,05,00,00,-2.40
2019,02,05,00,01,-2.40
2019,02,05,00,02,-2.40
2019,02,05,00,03,-2.40
2019,02,05,00,04,-2.40
2019,02,05,00,05,-2.40
2019,02,05,00,06,-2.40
2019,02,05,00,07,-2.40
2019,02,05,00,08,-2.40
2019,02,05,00,09,-2.40
2019,02,05,00,10,-2.40
2019,02,05,00,11,-2.40
2019,02,05,00,12,-2.40
2019,02,05,00,13,-2.40
2019,02,05,00,14,-2.40
2019,02,05,00,15,-2.40
2019,02,05,00,16,-2.40
2019,02,05,00,17,-2.50
2019,02,05,00,18,-2.50
2019,02,05,00,19,-2.50
2019,02,05,00,20,-2.50
2019,02,05,00,21,-2.50
2019,02,05,00,22,-2.50
2019,02,05,00,23,-2.50
2019,02,05,00,24,-2.50
2019,02,05,00,25,-2.60
2019,02,05,00,26,-2.60
2019,02,05,00,27,-2.60
2019,02,05,00,28,-2.60
2019,02,05,00,29,-2.60
2019,02,05,00,30,-2.60
2019,02,05,00,31,-2.60
2019,02,05,00,32,-2.60
2019,02,05,00,33,-2.60
2019,02,05,00,34,-2.60
2019,02,05,00,35,-2.60
2019,02,05,00,36,-2.60
2019,02,05,00,37,-2.60
2019,02,05,00,38,-2.60
2019,02,05,00,39,-2.60
2019,02,05,00,40,-2.60
2019,02,05,00,41,-2.60
2019,02,05,00,42,-2.50
2019,02,05,00,43,-2.60
2019,02,05,00,44,-2.60
2019,02,05,00,45,-2.50
2019,02,05,00,46,-2.50
2019,02,05,00,47,-2.50
2019,02,05,00,48,-2.50
2019,02,05,00,49,-2.50
2019,02,05,00,50,-2.50
2019,02,05,00,51,-2.50
2019,02,05,00,52,-2.60
2019,02,05,00,53,-2.60
2019,02,05,00,54,-2.60
2019,02,05,00,55,-2.60
2019,02,05,00,56,-2.60
2019,02,05,00,57,-2.70
2019,02,05,00,58,-2.70
2019,02,05,00,59,-2.70
2019,02,05,01,00,-2.80
2019,02,05,01,01,-2.80
2019,02,05,01,02,-2.80
2019,02,05,01,03,-2.90
2019,02,05,01,04,-2.90
2019,02,05,01,05,-3.00
2019,02,05,01,06,-3.00
2019,02,05,01,07,-3.10
2019,02,05,01,08,-3.10
2019,02,05,01,09,-3.10
2019,02,05,01,10,-3.10
2019,02,05,01,11,-3.10
2019,02,05,01,12,-3.10
2019,02,05,01,13,-3.10
2019,02,05,01,14,-3.10
2019,02,05,01,15,-3.10
2019,02,05,01,16,-3.10
2019,02,05,01,17,-3.10
2019,02,05,01,18,-3.00
2019,02,05,01,19,-3.00
2019,02,05,01,20,-3.00
2019,02,05,01,21,-2.90
2019,02,05,01,22,-2.90
2019,02,05,01,23,-2.90
2019,02,05,01,24,-2.90
2019,02,05,01,25,-2.90
2019,02,05,01,26,-3.00
2019,02,05,01,27,-3.00
2019,02,05,01,28,-3.00
2019,02,05,01,29,-3.00
2019,02,05,01,30,-3.10
2019,02,05,01,31,-3.10
2019,02,05,01,32,-3.10
2019,02,05,01,33,-3.10
2019,02,05,01,34,-3.10
2019,02,05,01,35,-3.10
2019,02,05,01,36,-3.10
2019,02,05,01,37,-3.10
2019,02,05,01,38,-3.10
2019,02,05,01,39,-3.00
2019,02,05,01,40,-3.00
2019,02,05,01,41,-3.00
2019,02,05,01,42,-3.10
2019,02,05,01,43,-3.10
2019,02,05,01,44,-3.10
2019,02,05,01,45,-3.10
2019,02,05,01,46,-3.10
2019,02,05,01,47,-3.10
2019,02,05,01,48,-3.10
2019,02,05,01,49,-3.20
2019,02,05,01,50,-3.20
2019,02,05,01,51,-3.20
2019,02,05,01,52,-3.30
2019,02,05,01,53,-3.30
2019,02,05,01,54,-3.30
2019,02,05,01,55,-3.40
2019,02,05,01,56,-3.40
2019,02,05,01,57,-3.40
2019,02,05,01,58,-3.50
2019,02,05,01,59,-3.50
2019,02,05,02,00,-3.50
2019,02,05,02,01,-3.60
2019,02,05,02,02,-3.60
2019,02,05,02,03,-3.60
2019,02,05,02,04,-3.60
2019,02,05,02,05,-3.70
2019,02,05,02,06,-3.70
2019,02,05,02,07,-3.70
2019,02,05,02,08,-3.70
2019,02,05,02,09,-3.70
2019,02,05,02,10,-3.80
2019,02,05,02,11,-3.80
2019,02,05,02,12,-3.80
2019,02,05,02,13,-3.80
2019,02,05,02,14,-3.90
2019,02,05,02,15,-3.90
2019,02,05,02,16,-3.90
2019,02,05,02,17,-4.00
2019,02,05,02,18,-4.00
2019,02,05,02,19,-4.10
2019,02,05,02,20,-4.10
2019,02,05,02,21,-4.10
2019,02,05,02,22,-4.20
2019,02,05,02,23,-4.20
2019,02,05,02,24,-4.20
2019,02,05,02,25,-4.20
2019,02,05,02,26,-4.30
2019,02,05,02,27,-4.30
2019,02,05,02,28,-4.30
2019,02,05,02,29,-4.30
2019,02,05,02,30,-4.40
2019,02,05,02,31,-4.40
2019,02,05,02,32,-4.40
2019,02,05,02,33,-4.40
2019,02,05,02,34,-4.50
2019,02,05,02,35,-4.50
2019,02,05,02,36,-4.50
2019,02,05,02,37,-4.50
2019,02,05,02,38,-4.50
2019,02,05,02,39,-4.50
2019,02,05,02,40,-4.50
2019,02,05,02,41,-4.40
2019,02,05,02,42,-4.30
2019,02,05,02,43,-4.30
2019,02,05,02,44,-4.20
2019,02,05,02,45,-4.20
2019,02,05,02,46,-4.10
2019,02,05,02,47,-4.10
2019,02,05,02,48,-4.10
2019,02,05,02,49,-4.10
2019,02,05,02,50,-4.10
2019,02,05,02,51,-4.10
2019,02,05,02,52,-4.10
2019,02,05,02,53,-4.10
2019,02,05,02,54,-4.10
2019,02,05,02,55,-4.10
2019,02,05,02,56,-4.10
2019,02,05,02,57,-4.00
2019,02,05,02,58,-4.00
2019,02,05,02,59,-4.00
2019,02,05,03,00,-3.90
2019,02,05,03,01,-3.90
2019,02,05,03,02,-3.90
2019,02,05,03,03,-3.80
2019,02,05,03,04,-3.80
2019,02,05,03,05,-3.80
2019,02,05,03,06,-3.80
2019,02,05,03,07,-3.80
2019,02,05,03,08,-3.70
2019,02,05,03,09,-3.70
2019,02,05,03,10,-3.70
2019,02,05,03,11,-3.70
2019,02,05,03,12,-3.70
2019,02,05,03,13,-3.70
2019,02,05,03,14,-3.60
2019,02,05,03,15,-3.60
2019,02,05,03,16,-3.60
2019,02,05,03,17,-3.60
2019,02,05,03,18,-3.60
2019,02,05,03,19,-3.60
2019,02,05,03,20,-3.60
2019,02,05,03,21,-3.60
2019,02,05,03,22,-3.60
2019,02,05,03,23,-3.60
2019,02,05,03,24,-3.60
2019,02,05,03,25,-3.70
2019,02,05,03,26,-3.70
2019,02,05,03,27,-3.70
2019,02,05,03,28,-3.70
2019,02,05,03,29,-3.80
2019,02,05,03,30,-3.80
2019,02,05,03,31,-3.80
2019,02,05,03,32,-3.80
2019,02,05,03,33,-3.80
2019,02,05,03,34,-3.80
2019,02,05,03,35,-3.80
2019,02,05,03,36,-3.80
2019,02,05,03,37,-3.90
2019,02,05,03,38,-3.90
2019,02,05,03,39,-3.90
2019,02,05,03,40,-3.90
2019,02,05,03,41,-3.90
2019,02,05,03,42,-3.80
2019,02,05,03,43,-3.80
2019,02,05,03,44,-3.80
2019,02,05,03,45,-3.80
2019,02,05,03,46,-3.80
2019,02,05,03,47,-3.90
2019,02,05,03,48,-3.90
2019,02,05,03,49,-3.90
2019,02,05,03,50,-3.90
2019,02,05,03,51,-3.90
2019,02,05,03,52,-3.90
2019,02,05,03,53,-4.00
2019,02,05,03,54,-4.00
2019,02,05,03,55,-4.00
2019,02,05,03,56,-4.00
2019,02,05,03,57,-4.10
2019,02,05,03,58,-4.10
2019,02,05,03,59,-4.10
2019,02,05,04,00,-4.10
2019,02,05,04,01,-4.10
2019,02,05,04,02,-4.10
2019,02,05,04,03,-4.20
2019,02,05,04,04,-4.20
2019,02,05,04,05,-4.20
2019,02,05,04,06,-4.20
2019,02,05,04,07,-4.20
2019,02,05,04,08,-4.20
2019,02,05,04,09,-4.20
2019,02,05,04,10,-4.20
2019,02,05,04,11,-4.20
2019,02,05,04,12,-4.20
2019,02,05,04,13,-4.10
2019,02,05,04,14,-4.10
2019,02,05,04,15,-4.20
2019,02,05,04,16,-4.20
2019,02,05,04,17,-4.20
2019,02,05,04,18,-4.20
2019,02,05,04,19,-4.20
2019,02,05,04,20,-4.20
2019,02,05,04,21,-4.20
2019,02,05,04,22,-4.20
2019,02,05,04,23,-4.20
2019,02,05,04,24,-4.20
2019,02,05,04,25,-4.20
2019,02,05,04,26,-4.20
2019,02,05,07,32,-5.30
2019,02,05,07,33,-5.30
2019,02,05,07,34,-5.30
2019,02,05,07,35,-5.30
2019,02,05,07,36,-5.30
2019,02,05,07,37,-5.30
2019,02,05,07,38,-5.40
2019,02,05,07,39,-5.40
2019,02,05,07,40,-5.40
2019,02,05,07,41,-5.40
2019,02,05,07,42,-5.50
2019,02,05,07,43,-5.50
2019,02,05,07,44,-5.50
2019,02,05,07,45,-5.50
2019,02,05,07,46,-5.50
2019,02,05,07,47,-5.50
2019,02,05,07,48,-5.50
2019,02,05,07,49,-5.60
2019,02,05,07,50,-5.60
2019,02,05,07,51,-5.60
2019,02,05,07,52,-5.50
2019,02,05,07,53,-5.50
2019,02,05,07,54,-5.40
2019,02,05,07,55,-5.30
2019,02,05,07,56,-5.30
2019,02,05,07,57,-5.30
2019,02,05,07,58,-5.20
2019,02,05,07,59,-5.20
2019,02,05,08,00,-5.10
2019,02,05,08,01,-5.00
2019,02,05,08,02,-5.00
2019,02,05,08,03,-5.00
2019,02,05,08,04,-4.90
2019,02,05,08,05,-4.90
2019,02,05,08,06,-4.90
2019,02,05,08,07,-4.80
2019,02,05,08,08,-4.80
2019,02,05,08,09,-4.80
2019,02,05,08,10,-4.80
2019,02,05,08,11,-4.80
2019,02,05,08,12,-4.80
2019,02,05,08,13,-4.80
2019,02,05,08,14,-4.70
2019,02,05,08,15,-4.70
2019,02,05,08,16,-4.70
2019,02,05,08,17,-4.80
2019,02,05,08,18,-4.70
2019,02,05,08,19,-4.70
2019,02,05,08,20,-4.70
2019,02,05,08,21,-4.70
2019,02,05,08,22,-4.70
2019,02,05,08,23,-4.70
2019,02,05,08,24,-4.70
2019,02,05,08,25,-4.70
2019,02,05,08,26,-4.70
2019,02,05,08,27,-4.70
2019,02,05,08,28,-4.70
2019,02,05,08,29,-4.60
2019,02,05,08,30,-4.60
2019,02,05,08,31,-4.60
2019,02,05,08,32,-4.50
2019,02,05,08,33,-4.50
2019,02,05,08,34,-4.50
2019,02,05,08,35,-4.40
2019,02,05,08,36,-4.40
2019,02,05,08,37,-4.40
2019,02,05,08,38,-4.40
2019,02,05,08,39,-4.40
2019,02,05,08,40,-4.30
2019,02,05,08,41,-4.30
2019,02,05,08,42,-4.40
2019,02,05,08,43,-4.40
2019,02,05,08,44,-4.30
2019,02,05,08,45,-4.30
2019,02,05,08,46,-4.30
2019,02,05,08,47,-4.30
2019,02,05,08,48,-4.30
2019,02,05,08,49,-4.30
2019,02,05,08,50,-4.20
2019,02,05,08,51,-4.20
2019,02,05,08,52,-4.20
2019,02,05,08,53,-4.20
2019,02,05,08,54,-4.10
2019,02,05,08,55,-4.10
2019,02,05,08,56,-4.10
2019,02,05,08,57,-4.00
2019,02,05,08,58,-4.00
2019,02,05,08,59,-3.90
2019,02,05,09,00,-3.80
2019,02,05,09,01,-3.80
2019,02,05,09,02,-3.80
2019,02,05,09,03,-3.70
2019,02,05,09,04,-3.70
2019,02,05,09,05,-3.70
2019,02,05,09,06,-3.60
2019,02,05,09,07,-3.50
2019,02,05,09,08,-3.40
2019,02,05,09,09,-3.40
2019,02,05,09,10,-3.30
2019,02,05,09,11,-3.20
2019,02,05,09,12,-3.20
2019,02,05,09,13,-3.10
2019,02,05,09,14,-3.10
2019,02,05,09,15,-3.00
2019,02,05,09,16,-3.00
2019,02,05,09,17,-2.90
2019,02,05,09,18,-2.90
2019,02,05,09,19,-2.90
2019,02,05,09,20,-2.80
2019,02,05,09,21,-2.80
2019,02,05,09,22,-2.70
2019,02,05,09,23,-2.70
2019,02,05,09,24,-2.60
2019,02,05,09,25,-2.60
2019,02,05,09,26,-2.50
2019,02,05,09,27,-2.50
2019,02,05,09,28,-2.40
2019,02,05,09,29,-2.40
2019,02,05,09,30,-2.40
2019,02,05,09,31,-2.30
2019,02,05,09,32,-2.30
2019,02,05,09,33,-2.30
2019,02,05,09,34,-2.30
2019,02,05,09,35,-2.30
2019,02,05,09,36,-2.30
2019,02,05,09,37,-2.20
2019,02,05,09,38,-2.20
2019,02,05,09,39,-2.20
2019,02,05,09,40,-2.10
2019,02,05,09,41,-2.10
2019,02,05,09,42,-2.10
2019,02,05,09,43,-2.00
2019,02,05,09,44,-2.00
2019,02,05,09,45,-1.90
2019,02,05,09,46,-1.90
2019,02,05,09,47,-1.90
2019,02,05,09,48,-1.90
2019,02,05,09,49,-1.80
2019,02,05,09,50,-1.80
2019,02,05,09,51,-1.80
2019,02,05,09,52,-1.80
2019,02,05,09,53,-1.80
2019,02,05,09,54,-1.80
2019,02,05,09,55,-1.80
2019,02,05,09,56,-1.80
2019,02,05,09,57,-1.80
2019,02,05,09,58,-1.80
2019,02,05,09,59,-1.70
2019,02,05,10,00,-1.70
2019,02,05,10,01,-1.70
2019,02,05,10,02,-1.70
2019,02,05,10,03,-1.60
2019,02,05,10,04,-1.60
2019,02,05,10,05,-1.60
2019,02,05,10,06,-1.60
2019,02,05,10,07,-1.50
2019,02,05,10,08,-1.50
2019,02,05,10,09,-1.50
2019,02,05,10,10,-1.40
2019,02,05,10,11,-1.40
2019,02,05,10,12,-1.40
2019,02,05,10,13,-1.40
2019,02,05,10,14,-1.40
2019,02,05,10,15,-1.40
2019,02,05,10,16,-1.40
2019,02,05,10,17,-1.30
2019,02,05,10,18,-1.30
2019,02,05,10,19,-1.30
2019,02,05,10,20,-1.20
2019,02,05,10,21,-1.20
2019,02,05,10,22,-1.20
2019,02,05,10,23,-1.20
2019,02,05,10,24,-1.10
2019,02,05,10,25,-1.10
2019,02,05,10,26,-1.10
2019,02,05,10,27,-1.00
2019,02,05,10,28,-1.00
2019,02,05,10,29,-0.90
2019,02,05,10,30,-0.90
2019,02,05,10,31,-0.90
2019,02,05,10,32,-0.90
2019,02,05,10,33,-0.90
2019,02,05,10,34,-0.90
2019,02,05,10,35,-0.80
2019,02,05,10,36,-0.80
2019,02,05,10,37,-0.80
2019,02,05,10,38,-0.80
2019,02,05,10,39,-0.80
2019,02,05,10,40,-0.80
2019,02,05,10,41,-0.90
2019,02,05,10,42,-0.90
2019,02,05,10,43,-0.90
2019,02,05,10,44,-0.90
2019,02,05,10,45,-0.90
2019,02,05,10,46,-0.80
2019,02,05,10,47,-0.80
2019,02,05,10,48,-0.80
2019,02,05,10,49,-0.70
2019,02,05,10,50,-0.70
2019,02,05,10,51,-0.70
2019,02,05,10,52,-0.60
2019,02,05,10,53,-0.60
2019,02,05,10,54,-0.50
2019,02,05,10,55,-0.50
2019,02,05,10,56,-0.40
2019,02,05,10,57,-0.40
2019,02,05,10,58,-0.40
2019,02,05,10,59,-0.40
2019,02,05,11,00,-0.30
2019,02,05,11,01,-0.30
2019,02,05,11,02,-0.30
2019,02,05,11,03,-0.20
2019,02,05,11,04,-0.20
2019,02,05,11,05,-0.20
2019,02,05,11,06,-0.20
2019,02,05,11,07,-0.10
2019,02,05,11,08,-0.10
2019,02,05,11,09,-0.10
2019,02,05,11,10,-0.10
2019,02,05,11,11,-0.10
2019,02,05,11,12,-0.10
2019,02,05,11,13,-0.10
2019,02,05,11,14,0.00
2019,02,05,11,15,0.00
2019,02,05,11,16,0.10
2019,02,05,11,17,0.10
2019,02,05,11,18,0.10
2019,02,05,11,19,0.10
2019,02,05,11,20,0.10
2019,02,05,11,21,0.10
2019,02,05,11,22,0.10
2019,02,05,11,23,0.10
2019,02,05,11,24,0.10
2019,02,05,11,25,0.20
2019,02,05,11,26,0.20
2019,02,05,11,27,0.20
2019,02,05,11,28,0.20
2019,02,05,11,29,0.20
2019,02,05,11,30,0.20
2019,02,05,11,31,0.20
2019,02,05,11,32,0.20
2019,02,05,11,33,0.30
2019,02,05,11,34,0.30
2019,02,05,11,35,0.40
2019,02,05,11,36,0.40
2019,02,05,11,37,0.40
2019,02,05,11,38,0.40
2019,02,05,11,39,0.50
2019,02,05,11,40,0.60
2019,02,05,11,41,0.60
2019,02,05,11,42,0.60
2019,02,05,11,43,0.70
2019,02,05,11,44,0.70
2019,02,05,11,45,0.80
2019,02,05,11,46,0.80
2019,02,05,11,47,0.80
2019,02,05,11,48,0.80
2019,02,05,11,49,0.80
2019,02,05,11,50,0.80
2019,02,05,11,51,0.80
2019,02,05,11,52,0.90
2019,02,05,11,53,0.90
2019,02,05,11,54,0.90
2019,02,05,11,55,1.00
2019,02,05,11,56,1.00
2019,02,05,11,57,1.10
2019,02,05,11,58,1.10
2019,02,05,11,59,1.10
2019,02,05,12,00,1.10
2019,02,05,12,01,1.10
2019,02,05,12,02,1.10
2019,02,05,12,03,1.10
2019,02,05,12,04,1.10
2019,02,05,12,05,1.10
2019,02,05,12,06,1.10
2019,02,05,12,07,1.10
2019,02,05,12,08,1.10
2019,02,05,12,09,1.10
2019,02,05,12,10,1.20
2019,02,05,12,11,1.30
2019,02,05,12,12,1.30
2019,02,05,12,13,1.40
2019,02,05,12,14,1.40
2019,02,05,12,15,1.40
2019,02,05,12,16,1.40
2019,02,05,12,17,1.40
2019,02,05,12,18,1.40
2019,02,05,12,19,1.40
2019,02,05,12,20,1.40
2019,02,05,12,21,1.40
2019,02,05,12,22,1.40
2019,02,05,12,23,1.40
2019,02,05,12,24,1.40
2019,02,05,12,25,1.40
2019,02,05,12,26,1.40
2019,02,05,14,08,2.40
2019,02,05,14,09,2.50
2019,02,05,14,10,2.50
2019,02,05,14,11,2.50
2019,02,05,14,12,2.40
2019,02,05,14,13,2.40
2019,02,05,14,14,2.30
2019,02,05,14,15,2.30
2019,02,05,14,16,2.30
2019,02,05,14,17,2.20
2019,02,05,14,18,2.20
2019,02,05,14,19,2.20
2019,02,05,14,20,2.20
2019,02,05,14,21,2.20
2019,02,05,14,22,2.30
2019,02,05,14,23,2.30
2019,02,05,14,24,2.30
2019,02,05,14,25,2.30
2019,02,05,14,26,2.30
2019,02,05,14,27,2.30
2019,02,05,14,28,2.30
2019,02,05,14,29,2.30
2019,02,05,14,30,2.30
2019,02,05,14,31,2.30
2019,02,05,14,32,2.30
2019,02,05,14,33,2.30
2019,02,05,14,34,2.30
2019,02,05,14,35,2.30
2019,02,05,14,36,2.30
2019,02,05,14,37,2.20
2019,02,05,14,38,2.20
2019,02,05,14,39,2.20
2019,02,05,14,40,2.20
2019,02,05,14,41,2.30
2019,02,05,14,42,2.30
2019,02,05,14,43,2.30
2019,02,05,14,44,2.40
2019,02,05,14,45,2.40
2019,02,05,14,46,2.40
2019,02,05,14,47,2.40
2019,02,05,14,48,2.40
2019,02,05,14,49,2.40
2019,02,05,14,50,2.40
2019,02,05,14,51,2.40
2019,02,05,14,52,2.40
2019,02,05,14,53,2.40
2019,02,05,14,54,2.40
2019,02,05,14,55,2.30
2019,02,05,14,56,2.30
2019,02,05,14,57,2.30
2019,02,05,14,58,2.40
2019,02,05,14,59,2.40
2019,02,05,15,00,2.40
2019,02,05,15,01,2.40
2019,02,05,15,02,2.30
2019,02,05,15,03,2.30
2019,02,05,15,04,2.30
2019,02,05,15,05,2.30
2019,02,05,15,06,2.30
2019,02,05,15,07,2.30
2019,02,05,15,08,2.30
2019,02,05,15,09,2.30
2019,02,05,15,10,2.30
2019,02,05,15,11,2.30
2019,02,05,15,12,2.30
2019,02,05,15,13,2.40
2019,02,05,15,14,2.40
2019,02,05,15,15,2.40
2019,02,05,15,16,2.40
2019,02,05,15,17,2.40
2019,02,05,15,18,2.40
2019,02,05,15,19,2.40
2019,02,05,15,20,2.40
2019,02,05,15,21,2.50
2019,02,05,15,22,2.50
2019,02,05,15,23,2.50
2019,02,05,15,24,2.60
2019,02,05,15,25,2.60
2019,02,05,15,26,2.60
2019,02,05,15,27,2.60
2019,02,05,15,28,2.60
2019,02,05,15,29,2.50
2019,02,05,15,30,2.50
2019,02,05,15,31,2.50
2019,02,05,15,32,2.60
2019,02,05,15,33,2.60
2019,02,05,15,34,2.60
2019,02,05,15,35,2.70
2019,02,05,15,36,2.70
2019,02,05,15,37,2.70
2019,02,05,15,38,2.70
2019,02,05,15,39,2.70
2019,02,05,15,40,2.70
2019,02,05,15,41,2.70
2019,02,05,15,42,2.70
2019,02,05,15,43,2.70
2019,02,05,15,44,2.60
2019,02,05,15,45,2.60
2019,02,05,15,46,2.60
2019,02,05,15,47,2.60
2019,02,05,15,48,2.60
2019,02,05,15,49,2.60
2019,02,05,15,50,2.60
2019,02,05,15,51,2.60
2019,02,05,15,52,2.70
2019,02,05,15,53,2.70
2019,02,05,15,54,2.70
2019,02,05,15,55,2.80
2019,02,05,15,56,2.80
2019,02,05,15,57,2.90
2019,02,05,15,58,2.90
2019,02,05,15,59,2.90
2019,02,05,16,00,2.90
2019,02,05,16,01,2.90
2019,02,05,16,02,2.90
2019,02,05,16,03,3.00
2019,02,05,16,04,3.00
2019,02,05,16,05,3.00
2019,02,05,16,06,3.00
2019,02,05,16,07,3.00
2019,02,05,16,08,3.00
2019,02,05,16,09,3.00
2019,02,05,16,10,2.90
2019,02,05,16,11,2.90
2019,02,05,16,12,2.90
2019,02,05,16,13,2.90
2019,02,05,16,14,2.90
2019,02,05,16,15,2.90
2019,02,05,16,16,2.90
2019,02,05,16,17,2.90
2019,02,05,16,18,2.90
2019,02,05,16,19,2.90
2019,02,05,16,20,2.90
2019,02,05,16,21,2.90
2019,02,05,16,22,2.90
2019,02,05,16,23,3.00
2019,02,05,16,24,3.00
2019,02,05,16,25,3.10
2019,02,05,16,26,3.10
2019,02,05,16,27,3.00
2019,02,05,16,28,2.90
2019,02,05,16,29,2.80
2019,02,05,16,30,2.70
2019,02,05,16,31,2.60
2019,02,05,16,32,2.50
2019,02,05,16,33,2.40
2019,02,05,16,34,2.30
2019,02,05,16,35,2.20
2019,02,05,16,36,2.10
2019,02,05,16,37,2.10
2019,02,05,16,38,2.00
2019,02,05,16,39,1.90
2019,02,05,16,40,1.90
2019,02,05,16,41,1.80
2019,02,05,16,42,1.80
2019,02,05,16,43,1.80
2019,02,05,16,44,1.70
2019,02,05,16,45,1.70
2019,02,05,16,46,1.60
2019,02,05,16,47,1.50
2019,02,05,16,48,1.40
2019,02,05,16,49,1.40
2019,02,05,16,50,1.30
2019,02,05,16,51,1.20
2019,02,05,16,52,1.20
2019,02,05,16,53,1.10
2019,02,05,16,54,1.10
2019,02,05,16,55,1.00
2019,02,05,16,56,0.90
2019,02,05,16,57,0.90
2019,02,05,16,58,0.80
2019,02,05,16,59,0.80
2019,02,05,17,00,0.80
2019,02,05,17,01,0.70
2019,02,05,17,02,0.70
2019,02,05,17,03,0.70
2019,02,05,17,04,0.60
2019,02,05,17,05,0.60
2019,02,05,17,06,0.60
2019,02,05,17,07,0.50
2019,02,05,17,08,0.50
2019,02,05,17,09,0.50
2019,02,05,17,10,0.40
2019,02,05,17,11,0.40
2019,02,05,17,12,0.40
2019,02,05,17,13,0.30
2019,02,05,17,14,0.30
2019,02,05,17,15,0.30
2019,02,05,17,16,0.30
2019,02,05,17,17,0.20
2019,02,05,17,18,0.20
2019,02,05,17,19,0.20
2019,02,05,17,20,0.20
2019,02,05,17,21,0.20
2019,02,05,17,22,0.10
2019,02,05,17,23,0.10
2019,02,05,17,24,0.10
2019,02,05,17,25,0.10
2019,02,05,17,26,0.00
2019,02,05,17,27,0.00
2019,02,05,17,28,0.00
2019,02,05,17,29,-0.10
2019,02,05,17,30,-0.10
2019,02,05,17,31,-0.10
2019,02,05,17,32,-0.10
2019,02,05,17,33,-0.20
2019,02,05,17,34,-0.20
2019,02,05,17,35,-0.20
2019,02,05,17,36,-0.30
2019,02,05,17,37,-0.30
2019,02,05,17,38,-0.30
2019,02,05,17,39,-0.30
2019,02,05,17,40,-0.30
2019,02,05,17,41,-0.40
2019,02,05,17,42,-0.40
2019,02,05,17,43,-0.40
2019,02,05,17,44,-0.40
2019,02,05,17,45,-0.50
2019,02,05,17,46,-0.50
2019,02,05,17,47,-0.50
2019,02,05,17,48,-0.50
2019,02,05,17,49,-0.60
2019,02,05,17,50,-0.60
2019,02,05,17,51,-0.60
2019,02,05,17,52,-0.60
2019,02,05,17,53,-0.70
2019,02,05,17,54,-0.70
2019,02,05,17,55,-0.70
2019,02,05,17,56,-0.70
2019,02,05,17,57,-0.70
2019,02,05,17,58,-0.70
2019,02,05,17,59,-0.70
2019,02,05,18,00,-0.80
2019,02,05,18,01,-0.80
2019,02,05,18,02,-0.80
2019,02,05,18,03,-0.80
2019,02,05,18,04,-0.90
2019,02,05,18,05,-0.90
2019,02,05,18,06,-0.90
2019,02,05,18,07,-0.90
2019,02,05,18,08,-0.90
2019,02,05,18,09,-0.90
2019,02,05,18,10,-0.90
2019,02,05,18,11,-0.90
2019,02,05,18,12,-0.90
2019,02,05,18,13,-0.90
2019,02,05,18,14,-0.90
2019,02,05,18,15,-0.90
2019,02,05,18,16,-0.90
2019,02,05,18,17,-1.00
2019,02,05,18,18,-1.00
2019,02,05,18,19,-1.00
2019,02,05,18,20,-1.00
2019,02,05,18,21,-1.00
2019,02,05,18,22,-1.10
2019,02,05,18,23,-1.10
2019,02,05,18,24,-1.10
2019,02,05,18,25,-1.10
2019,02,05,18,26,-1.10
2019,02,05,18,27,-1.20
2019,02,05,18,28,-1.20
2019,02,05,18,29,-1.20
2019,02,05,18,30,-1.20
2019,02,05,18,31,-1.20
2019,02,05,18,32,-1.20
2019,02,05,18,33,-1.20
2019,02,05,18,34,-1.10
2019,02,05,18,35,-1.10
2019,02,05,18,36,-1.10
2019,02,05,18,37,-1.10
2019,02,05,18,38,-1.10
2019,02,05,18,39,-1.10
2019,02,05,18,40,-1.20
2019,02,05,18,41,-1.20
2019,02,05,18,42,-1.20
2019,02,05,18,43,-1.20
2019,02,05,18,44,-1.30
2019,02,05,18,45,-1.30
2019,02,05,18,46,-1.30
2019,02,05,18,47,-1.30
2019,02,05,18,48,-1.30
2019,02,05,18,49,-1.40
2019,02,05,18,50,-1.40
2019,02,05,18,51,-1.40
2019,02,05,18,52,-1.40
2019,02,05,18,53,-1.40
2019,02,05,18,54,-1.40
2019,02,05,18,55,-1.40
2019,02,05,18,56,-1.40
2019,02,05,18,57,-1.40
2019,02,05,18,58,-1.50
2019,02,05,18,59,-1.50
2019,02,05,19,00,-1.50
2019,02,05,19,01,-1.50
2019,02,05,19,02,-1.50
2019,02,05,19,03,-1.50
2019,02,05,19,04,-1.50
2019,02,05,19,05,-1.60
2019,02,05,19,06,-1.50
2019,02,05,19,07,-1.50
2019,02,05,19,08,-1.50
2019,02,05,19,09,-1.40
2019,02,05,19,10,-1.40
2019,02,05,19,11,-1.40
2019,02,05,19,12,-1.40
2019,02,05,19,13,-1.40
2019,02,05,19,14,-1.30
2019,02,05,19,15,-1.30
2019,02,05,19,16,-1.30
2019,02,05,19,17,-1.30
2019,02,05,19,18,-1.30
2019,02,05,19,19,-1.20
2019,02,05,19,20,-1.20
2019,02,05,19,21,-1.10
2019,02,05,19,22,-1.10
2019,02,05,19,23,-1.10
2019,02,05,19,24,-1.00
2019,02,05,19,25,-1.00
2019,02,05,19,26,-1.00
2019,02,05,19,27,-1.10
2019,02,05,19,28,-1.10
2019,02,05,19,29,-1.10
2019,02,05,19,30,-1.10
2019,02,05,19,31,-1.10
2019,02,05,19,32,-1.10
2019,02,05,19,33,-1.10
2019,02,05,19,34,-1.10
2019,02,05,19,35,-1.10
2019,02,05,19,36,-1.00
2019,02,05,19,37,-0.90
2019,02,05,19,38,-0.90
2019,02,05,19,39,-0.90
2019,02,05,19,40,-0.80
2019,02,05,19,41,-0.80
2019,02,05,19,42,-0.80
2019,02,05,19,43,-0.80
2019,02,05,19,44,-0.80
2019,02,05,19,45,-0.80
2019,02,05,19,46,-0.80
2019,02,05,19,47,-0.80
2019,02,05,19,48,-0.90
2019,02,05,19,49,-0.90
2019,02,05,19,50,-1.00
2019,02,05,19,51,-1.00
2019,02,05,19,52,-1.10
2019,02,05,19,53,-1.10
2019,02,05,19,54,-1.20
2019,02,05,19,55,-1.20
2019,02,05,19,56,-1.20
2019,02,05,19,57,-1.20
2019,02,05,19,58,-1.30
2019,02,05,19,59,-1.30
2019,02,05,20,00,-1.30
2019,02,05,20,01,-1.30
2019,02,05,20,02,-1.30
2019,02,05,20,03,-1.30
2019,02,05,20,04,-1.30
2019,02,05,20,05,-1.30
2019,02,05,20,06,-1.30
2019,02,05,20,07,-1.40
2019,02,05,20,08,-1.40
2019,02,05,20,09,-1.40
2019,02,05,20,10,-1.40
2019,02,05,20,11,-1.40
2019,02,05,20,12,-1.40
2019,02,05,20,13,-1.40
2019,02,05,20,14,-1.40
2019,02,05,20,15,-1.40
2019,02,05,20,16,-1.40
2019,02,05,20,17,-1.40
2019,02,05,20,18,-1.50
2019,02,05,20,19,-1.50
2019,02,05,20,20,-1.50
2019,02,05,20,21,-1.50
2019,02,05,20,22,-1.50
2019,02,05,20,23,-1.50
2019,02,05,20,24,-1.50
2019,02,05,20,25,-1.50
2019,02,05,20,26,-1.60
2019,02,05,20,27,-1.60
2019,02,05,20,28,-1.60
2019,02,05,20,29,-1.60
2019,02,05,20,30,-1.60
2019,02,05,20,31,-1.60
2019,02,05,20,32,-1.50
2019,02,05,20,33,-1.50
2019,02,05,20,34,-1.50
2019,02,05,20,35,-1.50
2019,02,05,20,36,-1.50
2019,02,05,20,37,-1.50
2019,02,05,20,38,-1.50
2019,02,05,20,39,-1.50
2019,02,05,20,40,-1.50
2019,02,05,20,41,-1.50
2019,02,05,20,42,-1.50
2019,02,05,20,43,-1.40
2019,02,05,20,44,-1.30
2019,02,05,20,45,-1.20
2019,02,05,20,46,-1.10
2019,02,05,20,47,-1.00
2019,02,05,20,48,-0.90
2019,02,05,20,49,-0.90
2019,02,05,20,50,-0.80
2019,02,05,20,51,-0.80
2019,02,05,20,52,-0.70
2019,02,05,20,53,-0.60
2019,02,05,20,54,-0.60
2019,02,05,20,55,-0.50
2019,02,05,20,56,-0.50
2019,02,05,20,57,-0.50
2019,02,05,20,58,-0.50
2019,02,05,20,59,-0.50
2019,02,05,21,00,-0.60
2019,02,05,21,01,-0.60
2019,02,05,21,02,-0.60
2019,02,05,21,03,-0.60
2019,02,05,21,04,-0.60
2019,02,05,21,05,-0.60
2019,02,05,21,06,-0.60
2019,02,05,21,07,-0.60
2019,02,05,21,08,-0.60
2019,02,05,21,09,-0.60
2019,02,05,21,10,-0.60
2019,02,05,21,11,-0.70
2019,02,05,21,12,-0.70
2019,02,05,21,13,-0.70
2019,02,05,21,14,-0.70
2019,02,05,21,15,-0.70
2019,02,05,21,16,-0.70
2019,02,05,21,17,-0.80
2019,02,05,21,18,-0.80
2019,02,05,21,19,-0.70
2019,02,05,21,20,-0.70
2019,02,05,21,21,-0.80
2019,02,05,21,22,-0.80
2019,02,05,21,23,-0.90
2019,02,05,21,24,-1.00
2019,02,05,21,25,-1.10
2019,02,05,21,26,-1.20
2019,02,05,21,27,-1.30
2019,02,05,21,28,-1.40
2019,02,05,21,29,-1.40
2019,02,05,21,30,-1.50
2019,02,05,21,31,-1.60
2019,02,05,21,32,-1.70
2019,02,05,21,33,-1.70
2019,02,05,21,34,-1.70
2019,02,05,21,35,-1.80
2019,02,05,21,36,-1.80
2019,02,05,21,37,-1.90
2019,02,05,21,38,-1.90
2019,02,05,21,39,-1.90
2019,02,05,21,40,-1.90
2019,02,05,21,41,-2.00
2019,02,05,21,42,-2.00
2019,02,05,21,43,-2.00
2019,02,05,21,44,-2.10
2019,02,05,21,45,-2.10
2019,02,05,21,46,-2.10
2019,02,05,21,47,-2.10
2019,02,05,21,48,-2.20
2019,02,05,21,49,-2.20
2019,02,05,21,50,-2.20
2019,02,05,21,51,-2.20
2019,02,05,21,52,-2.30
2019,02,05,21,53,-2.30
2019,02,05,21,54,-2.30
2019,02,05,21,55,-2.30
2019,02,05,21,56,-2.30
2019,02,05,21,57,-2.40
2019,02,05,21,58,-2.40
2019,02,05,21,59,-2.40
2019,02,05,22,00,-2.40
2019,02,05,22,01,-2.40
2019,02,05,22,02,-2.40
2019,02,05,22,03,-2.50
2019,02,05,22,04,-2.50
2019,02,05,22,05,-2.50
2019,02,05,22,06,-2.60
2019,02,05,22,07,-2.60
2019,02,05,22,08,-2.60
2019,02,05,22,09,-2.60
2019,02,05,22,10,-2.60
2019,02,05,22,11,-2.70
2019,02,05,22,12,-2.70
2019,02,05,22,13,-2.70
2019,02,05,22,14,-2.70
2019,02,05,22,15,-2.80
2019,02,05,22,16,-2.80
2019,02,05,22,17,-2.80